Temperature
12 11 10 11 11 12 12 12 12 12 12 11 11 11 12 13 13 12 12 12 11 11 10 10 10 9 9 9 8 8 8 8 8 8 8 8 8 8 8 8 8 8 8 8
11 10 11 12 12 11 11 11 11 11 12 11 10 11 12 12 11 12 12 11 11 10 10 10 9 9 9 8 8 8 8 8 7 7 7 7 7 7 7 7 7 7 7 7
10 10 11 11 11 11 11 10 10 10 10 11 10 10 11 11 12 11 11 11 11 10 10 9 9 8 8 8 8 8 8 7 7 7 7 7 7 7 7 7 7 7 7 7
10 10 10 10 10 10 9 10 10 9 8 8 10 8 10 11 10 10 11 10 10 10 9 9 8 8 8 8 7 7 7 7 7 7 7 7 6 6 6 6 6 6 6 6
9 9 9 9 9 9 9 9 9 9 8 7 8 8 8 11 10 10 10 10 10 9 9 8 8 8 7 7 7 7 7 7 7 6 6 6 6 6 6 6 6 6 6 6
9 9 9 9 9 9 9 8 8 8 7 6 8 8 8 10 10 10 9 10 9 9 8 8 8 7 7 7 7 6 6 6 6 6 6 6 6 6 5 5 5 5 5 5
8 8 8 8 8 8 8 6 6 6 6 7 8 8 8 10 10 10 9 9 9 9 8 8 7 7 7 6 6 6 6 6 6 6 6 5 5 5 5 5 5 5 5 5
7 6 7 7 7 7 7 7 6 6 6 7 8 7 8 10 10 10 10 9 9 8 8 8 7 7 6 6 6 5 5 5 5 5 5 5 5 5 5 5 5 5 5 5
6 6 7 7 7 7 7 6 7 6 5 6 7 8 9 9 9 8 9 9 8 8 8 7 7 6 6 6 5 5 5 5 5 5 5 5 5 4 4 4 4 4 4 4
6 5 6 6 6 6 6 6 5 5 5 6 8 8 7 8 7 7 7 7 7 7 7 7 7 6 6 5 5 5 5 4 4 4 4 4 4 4 4 4 4 4 4 3
5 4 4 5 5 4 5 5 5 5 5 5 6 7 8 7 7 6 6 7 7 6 6 6 6 6 5 5 5 4 4 4 4 4 4 4 4 4 3 3 3 3 3 3
5 4 3 4 5 5 5 5 4 4 4 5 5 6 7 6 6 6 6 6 6 6 6 6 5 5 5 4 4 4 4 4 4 3 3 3 3 3 3 3 3 3 3 3
4 3 3 3 3 4 4 4 4 3 3 3 4 5 7 6 6 6 6 5 5 5 5 5 5 4 4 4 4 4 4 3 3 3 3 3 3 3 3 2 2 2 2 3
4 2 2 3 4 3 2 3 3 3 2 3 4 4 5 5 5 5 5 5 5 4 4 4 4 4 3 3 3 3 3 3 3 3 3 2 2 2 2 2 2 2 2 2
2 1 2 2 3 3 3 3 2 2 2 2 3 4 5 5 4 5 5 5 4 4 4 3 3 3 3 3 3 3 3 3 3 2 2 2 2 2 2 2 2 2 2 2
1 1 1 1 3 3 3 3 2 2 2 3 3 3 5 5 5 4 4 4 4 3 3 3 3 3 2 2 2 2 2 2 2 2 2 2 1 1 1 1 1 1 1 1
-0 -0 1 1 2 2 1 2 2 2 2 3 2 3 4 4 4 4 4 3 3 3 3 2 2 2 2 2 2 2 2 2 1 1 1 1 1 1 1 1 1 1 1 1
-1 -0 -0 1 1 1 3 3 3 2 2 2 2 3 3 3 4 3 3 3 3 2 2 2 2 2 2 2 2 2 1 1 1 1 1 1 1 1 1 0 0 0 0 0
-0 -0 0 0 1 2 3 2 2 1 1 2 2 2 2 3 3 2 3 2 2 2 2 1 1 1 1 1 1 1 1 1 1 0 0 0 0 0 0 -0 -0 -0 -0 -0
-1 -1 -0 0 1 1 2 2 2 2 0 1 1 1 1 1 0 1 2 2 1 1 1 1 1 1 1 1 1 1 1 0 0 0 -0 -0 -0 -0 -0 -1 -1 -1 -1 -0
-2 -1 -1 -0 0 1 1 1 1 0 0 1 1 1 1 0 0 1 1 1 0 0 0 0 0 0 0 -0 -0 -0 -0 -0 -0 -0 -0 -1 -1 -1 -1 -1 -1 -1 -1 -1
-1 -1 -1 -1 -0 0 0 -0 -0 -0 1 1 1 0 0 0 0 -0 -0 -0 -0 -1 -0 -0 -0 -0 -0 -1 -1 -1 -1 -1 -1 -1 -1 -1 -1 -1 -1 -1 -2 -1 -1 -1
-1 -1 -1 -0 0 0 1 0 0 0 0 0 -0 -0 -1 -1 -1 -1 -1 -1 -1 -1 -1 -1 -1 -1 -1 -1 -1 -1 -1 -1 -1 -1 -1 -1 -2 -2 -2 -2 -2 -2 -2 -2
-1 -1 -1 -1 -1 0 0 0 -0 -0 -1 -1 -1 -1 -1 -1 -1 -2 -2 -2 -2 -2 -2 -2 -2 -2 -2 -2 -2 -2 -2 -2 -2 -2 -2 -2 -2 -2 -2 -2 -2 -2 -2 -2
-1 -2 -2 -2 -2 -1 -0 -1 -1 -1 -1 -1 -1 -2 -2 -2 -2 -2 -2 -2 -2 -2 -2 -2 -2 -2 -2 -2 -2 -2 -2 -2 -2 -2 -2 -2 -3 -3 -3 -3 -3 -3 -3 -3
-2 -2 -2 -2 -1 -2 -2 -1 -2 -2 -2 -2 -2 -2 -2 -2 -3 -3 -3 -3 -3 -3 -2 -2 -2 -3 -2 -2 -2 -2 -2 -3 -3 -3 -3 -3 -3 -3 -3 -3 -3 -3 -3 -3
Wind_Speed
4 3 5 5 7 6 6 7 7 5 1 4 8 9 8 5 5 4 3 3 3 2 2 3 3 4 4 4 3 4 4 3 3 2 2 2 2 1 1 2 2 1 1 2
3 6 5 4 4 6 7 8 7 4 2 4 7 10 9 6 6 4 4 3 3 2 2 3 4 4 3 4 4 4 4 4 3 3 2 2 2 2 2 2 2 2 2 2
4 1 1 3 3 6 7 6 6 5 4 5 6 8 7 5 4 4 3 3 3 3 3 4 4 4 4 3 4 4 5 4 3 3 2 2 1 1 1 2 2 2 2 2
3 2 1 2 3 4 5 3 4 4 3 3 3 5 6 6 6 6 5 4 3 3 2 3 3 4 4 4 3 3 3 4 3 4 4 4 3 2 2 2 2 2 2 2
2 2 2 3 3 3 2 3 3 5 5 4 5 5 6 6 6 6 5 4 4 3 3 3 3 3 3 3 3 3 4 4 4 4 4 4 3 2 2 2 2 2 2 2
3 1 1 2 1 1 1 2 3 3 1 5 7 7 6 4 6 5 5 5 4 3 3 3 2 2 2 3 3 3 4 4 4 4 4 5 5 4 3 3 3 3 2 2
2 2 1 1 0 1 0 0 1 2 4 6 5 6 6 3 2 3 4 4 3 3 2 2 3 2 2 3 3 3 4 4 4 4 4 4 4 4 5 4 4 3 2 2
2 3 3 1 1 2 4 3 3 3 4 3 3 7 5 2 2 2 3 4 4 3 3 2 3 3 3 3 3 3 4 4 4 4 4 4 4 4 3 4 4 4 3 3
2 2 0 1 2 1 2 3 1 2 3 4 6 5 2 3 2 1 2 2 2 2 1 2 2 3 3 3 3 3 3 3 4 4 4 4 4 3 4 4 3 3 3 3
1 2 2 0 1 2 2 0 1 2 2 5 6 6 4 4 3 2 2 1 1 1 1 1 1 2 3 3 3 3 3 4 3 4 3 3 3 3 3 3 4 4 3 3
2 1 2 1 4 4 2 2 2 3 3 3 5 4 1 2 2 2 0 0 1 2 1 1 1 0 1 2 3 2 3 3 3 3 3 3 3 3 3 3 4 3 3 3
1 1 3 3 1 2 2 3 4 3 4 4 4 5 2 4 4 3 2 1 2 2 2 1 1 1 1 1 2 3 3 3 3 3 3 3 3 2 3 3 3 3 3 3
1 2 1 1 1 1 2 2 2 2 2 4 5 6 1 3 3 3 2 2 2 3 3 2 1 1 1 1 1 2 2 2 2 2 2 3 3 3 3 3 3 3 3 3
1 2 5 6 3 2 4 5 5 4 5 6 8 9 8 4 3 3 3 3 2 2 3 3 2 2 2 1 1 1 1 1 1 2 2 3 3 3 3 3 4 4 4 4
1 3 4 6 6 4 5 7 8 9 9 8 9 10 11 7 4 4 4 3 3 3 3 3 3 3 2 2 2 1 1 0 0 1 2 2 2 2 3 3 3 3 3 4
1 2 2 5 6 4 7 8 9 10 10 12 12 14 9 5 3 4 4 4 4 4 4 3 3 3 2 2 2 1 1 1 0 1 2 2 1 2 2 2 2 2 3 3
3 3 2 4 3 3 7 9 9 7 8 8 11 11 7 5 5 5 5 4 5 4 3 3 3 3 2 2 2 1 1 1 0 1 1 1 1 1 2 2 2 3 3 3
4 3 2 2 0 6 6 1 5 8 9 8 8 7 5 5 5 4 4 4 4 4 3 4 3 3 2 2 1 1 0 0 1 1 1 1 1 1 1 1 2 2 2 3
3 4 3 2 4 7 4 2 2 4 6 5 7 8 7 6 5 5 3 2 3 4 3 3 2 2 2 2 1 0 1 1 1 1 2 2 1 1 1 1 1 1 1 2
1 2 3 3 3 5 4 0 0 2 5 4 4 6 6 4 4 5 4 4 4 3 2 2 2 1 1 1 0 0 1 1 1 2 2 2 1 1 1 1 1 1 1 2
3 3 5 6 5 6 3 1 3 2 5 4 4 4 4 3 4 5 5 4 4 4 3 2 1 1 2 1 0 1 1 1 1 2 2 2 1 1 1 0 0 1 1 1
7 5 5 5 5 7 1 3 4 4 3 4 5 4 4 5 5 5 4 4 4 4 4 3 1 1 2 1 0 1 2 2 1 1 2 2 2 1 0 1 0 0 1 1
6 6 4 7 7 2 3 3 2 2 4 4 5 5 5 5 5 5 5 5 4 4 3 3 2 2 2 1 1 2 2 1 1 1 2 2 2 1 1 1 1 0 1 1
3 2 2 4 5 3 3 3 3 4 4 5 5 5 5 5 5 5 5 4 4 3 3 3 2 2 3 2 1 2 1 0 0 1 1 1 1 1 1 0 0 0 1 1
3 4 3 5 5 4 4 3 4 4 4 5 6 5 5 5 5 5 5 5 4 3 3 2 2 2 3 2 2 2 1 0 1 1 1 1 1 1 1 0 0 1 1 2
4 5 5 6 4 4 5 3 4 4 5 6 6 6 5 4 5 5 5 4 4 4 3 2 2 3 3 2 2 2 1 1 1 2 2 1 1 1 1 1 1 2 1 2
Wind_Direction
193 216 216 222 230 266 273 269 268 272 226 231 243 257 261 240 233 230 225 194 177 182 164 154 156 147 144 148 154 162 158 161 160 163 163 168 169 164 167 133 140 135 126 121
203 232 240 248 255 267 267 264 273 284 265 258 259 261 259 239 223 222 218 190 180 179 167 163 154 149 154 159 167 177 173 176 175 177 179 182 177 186 185 152 151 165 154 133
217 257 258 251 264 265 256 258 270 279 293 255 265 270 244 225 206 203 213 189 187 185 181 170 167 160 159 165 179 189 182 182 180 161 160 160 139 142 177 192 191 162 158 148
247 250 237 239 252 265 264 310 305 290 287 254 226 271 246 217 207 209 212 202 197 191 169 162 168 169 172 175 178 185 183 182 184 172 173 172 181 203 223 204 202 183 162 155
245 235 235 239 259 266 295 349 301 271 267 280 239 242 265 210 217 207 201 196 186 181 173 167 169 177 174 169 178 188 185 190 190 184 184 182 188 202 205 193 193 206 177 161
270 328 309 282 300 255 332 324 279 261 253 254 224 218 262 215 208 195 186 188 185 186 183 164 164 162 164 168 181 192 192 196 192 186 186 188 191 187 191 204 206 208 208 200
242 203 193 348 28 189 285 66 315 246 224 242 209 219 244 216 163 175 180 187 187 179 178 174 179 184 187 185 192 201 197 198 192 188 194 196 196 191 198 205 206 204 210 225
226 233 182 200 210 221 220 211 199 228 244 267 216 232 241 166 98 99 158 178 186 182 182 192 191 192 196 198 196 200 196 197 195 195 199 199 199 199 205 208 206 209 213 216
235 246 53 304 313 273 219 223 247 281 290 274 239 233 239 143 123 85 116 154 186 186 199 212 203 193 192 197 204 207 206 202 201 204 203 200 203 206 207 207 208 214 218 217
303 258 224 195 301 288 263 227 145 200 242 261 258 237 231 191 191 169 174 179 305 354 324 266 209 183 191 197 203 204 214 212 209 211 207 209 204 215 215 205 208 213 216 213
330 207 221 217 206 214 199 197 219 230 239 247 268 268 1 155 148 151 165 61 355 338 334 335 339 320 190 187 193 211 213 212 211 211 205 200 209 217 213 212 212 212 215 210
204 188 247 241 238 306 233 209 185 199 247 242 264 273 25 72 71 58 15 5 1 359 351 341 338 347 312 238 207 213 218 209 207 212 206 207 210 208 213 213 215 213 217 216
129 152 234 275 250 284 263 250 213 213 246 238 243 262 334 36 25 19 7 355 356 358 355 350 349 329 316 306 277 229 213 204 205 207 209 212 207 208 219 216 215 215 217 218
141 196 211 226 251 201 241 236 222 209 230 251 246 265 286 304 324 330 333 325 331 341 340 341 340 323 308 291 292 284 244 200 201 203 206 219 216 213 224 216 213 217 214 209
124 224 241 269 282 260 242 236 225 224 230 238 263 271 276 288 291 301 303 308 326 326 325 326 321 307 304 306 299 300 294 201 195 218 222 232 233 227 229 214 214 212 213 211
162 229 254 269 262 257 267 255 237 237 242 250 267 274 279 293 301 302 302 304 305 302 304 311 312 303 285 280 273 284 282 270 212 246 247 237 230 239 243 218 205 206 214 209
180 181 210 251 251 290 269 240 228 231 230 232 250 262 288 296 293 293 292 291 285 289 296 299 295 285 275 268 258 247 273 316 279 257 274 249 228 244 265 235 207 210 206 202
179 183 209 249 313 241 244 194 200 230 245 242 256 274 285 280 292 291 282 284 291 292 290 289 286 289 286 290 292 280 272 292 299 289 287 270 245 251 267 249 221 214 197 198
188 185 209 214 235 263 268 241 194 214 265 256 259 282 298 306 305 289 298 297 286 285 280 278 275 281 292 290 280 293 299 292 295 292 301 299 262 243 250 250 239 230 200 198
154 180 205 218 230 246 256 284 38 116 278 297 287 288 304 330 300 289 328 330 323 322 313 305 303 308 309 296 290 282 290 300 296 302 304 305 285 239 228 237 258 262 204 195
170 197 217 228 239 259 269 143 99 162 260 320 321 302 303 280 266 292 317 328 330 324 317 316 307 305 294 286 190 255 288 282 296 321 323 325 311 256 227 219 235 228 198 180
180 188 202 205 225 248 197 129 184 239 308 331 332 327 316 303 309 314 316 316 319 318 320 326 313 298 306 298 205 275 285 294 330 344 338 333 330 328 331 145 172 212 186 185
197 197 199 202 218 234 166 191 249 306 310 318 320 317 312 306 302 303 303 304 300 299 305 309 294 301 308 297 233 244 271 299 6 353 332 329 336 341 343 126 150 183 172 184
215 190 220 253 257 264 254 283 310 315 305 311 309 305 301 293 291 294 295 294 292 293 292 295 293 288 293 296 284 258 273 276 290 292 298 308 321 327 352 30 115 193 197 192
207 178 218 249 271 289 263 279 301 307 312 312 311 305 293 287 284 284 288 289 287 289 290 290 273 270 280 295 290 282 270 244 251 266 279 286 284 268 258 336 323 261 240 211
212 205 212 240 245 246 269 295 311 310 306 302 302 307 308 298 290 290 289 289 291 288 285 289 277 269 274 275 279 281 260 221 223 252 266 267 265 261 233 223 322 344 293 277
Height
1490 1493 1494 1492 1491 1491 1490 1491 1491 1489 1489 1492 1492 1491 1487 1486 1487 1488 1489 1490 1491 1492 1493 1495 1496 1496 1497 1498 1499 1500 1500 1501 1502 1502 1503 1504 1505 1506 1507 1508 1509 1510 1511 1512
1491 1492 1489 1488 1489 1490 1490 1492 1492 1490 1489 1490 1490 1488 1484 1483 1484 1485 1486 1487 1488 1489 1491 1492 1493 1493 1494 1494 1495 1497 1497 1498 1499 1500 1501 1501 1502 1503 1504 1505 1506 1507 1508 1509
1489 1490 1488 1488 1490 1490 1490 1492 1492 1492 1490 1489 1491 1488 1482 1480 1480 1482 1483 1484 1486 1487 1488 1489 1490 1490 1491 1491 1492 1493 1494 1495 1496 1497 1498 1499 1500 1500 1501 1502 1503 1504 1505 1506
1488 1488 1488 1489 1491 1491 1492 1490 1491 1493 1496 1496 1491 1498 1482 1477 1478 1479 1480 1482 1483 1484 1485 1486 1487 1487 1488 1488 1489 1490 1491 1492 1493 1494 1494 1495 1495 1496 1497 1499 1500 1501 1502 1502
1489 1488 1489 1490 1491 1491 1492 1491 1492 1493 1494 1498 1492 1496 1485 1474 1476 1477 1477 1479 1480 1482 1483 1483 1484 1485 1485 1485 1486 1486 1487 1488 1489 1490 1491 1491 1492 1493 1495 1496 1497 1497 1498 1499
1489 1488 1489 1490 1490 1491 1492 1492 1493 1493 1497 1502 1490 1492 1484 1474 1472 1473 1474 1476 1477 1479 1480 1481 1481 1482 1482 1482 1483 1483 1484 1484 1485 1486 1487 1488 1488 1489 1490 1492 1492 1493 1494 1495
1490 1489 1490 1490 1491 1492 1493 1499 1503 1502 1502 1495 1482 1485 1479 1468 1467 1468 1471 1473 1475 1476 1477 1478 1478 1478 1478 1479 1479 1480 1480 1481 1481 1482 1483 1484 1485 1486 1487 1487 1488 1489 1489 1490
1491 1493 1490 1490 1491 1493 1493 1496 1503 1503 1497 1488 1484 1483 1473 1466 1465 1466 1468 1470 1472 1473 1474 1475 1475 1475 1476 1476 1476 1476 1477 1477 1478 1478 1479 1480 1482 1482 1483 1484 1484 1485 1485 1486
1491 1492 1489 1489 1490 1491 1492 1495 1494 1498 1498 1497 1484 1472 1468 1465 1465 1466 1467 1469 1470 1471 1472 1473 1473 1473 1473 1473 1473 1473 1473 1474 1474 1475 1476 1477 1477 1478 1479 1479 1480 1481 1482 1483
1489 1495 1491 1490 1491 1491 1491 1492 1497 1499 1499 1494 1477 1472 1472 1467 1466 1466 1466 1467 1468 1469 1470 1470 1470 1470 1470 1470 1470 1470 1471 1471 1471 1472 1473 1473 1474 1474 1475 1475 1476 1476 1477 1478
1490 1496 1495 1493 1493 1493 1493 1495 1495 1495 1494 1494 1487 1477 1464 1463 1464 1465 1466 1467 1468 1468 1468 1468 1468 1468 1468 1467 1467 1467 1467 1468 1468 1469 1469 1469 1469 1470 1471 1471 1472 1472 1473 1474
1490 1495 1496 1492 1489 1489 1489 1490 1494 1500 1498 1492 1490 1482 1465 1464 1464 1466 1467 1467 1467 1467 1467 1466 1466 1465 1465 1465 1465 1464 1464 1465 1465 1465 1465 1465 1465 1466 1466 1467 1468 1469 1469 1470
1491 1496 1500 1495 1496 1494 1492 1490 1492 1496 1496 1494 1491 1481 1465 1465 1465 1466 1467 1467 1466 1465 1465 1464 1463 1463 1462 1462 1462 1462 1462 1462 1462 1462 1462 1461 1462 1462 1462 1462 1463 1464 1465 1466
1489 1494 1496 1493 1488 1491 1493 1491 1491 1494 1497 1493 1484 1477 1469 1467 1467 1467 1467 1466 1465 1464 1463 1462 1461 1460 1460 1460 1459 1459 1459 1459 1459 1459 1458 1458 1458 1458 1458 1458 1459 1459 1460 1461
1490 1493 1492 1488 1485 1485 1486 1487 1488 1490 1489 1490 1479 1474 1469 1467 1467 1466 1466 1465 1463 1462 1461 1460 1459 1458 1458 1457 1457 1456 1456 1456 1456 1455 1455 1454 1454 1454 1454 1454 1454 1455 1456 1457
1489 1492 1492 1490 1484 1483 1484 1482 1482 1483 1483 1480 1477 1473 1466 1465 1465 1464 1464 1463 1462 1461 1460 1458 1457 1456 1455 1455 1454 1454 1453 1453 1453 1452 1451 1451 1450 1450 1450 1450 1450 1451 1452 1453
1489 1492 1492 1487 1483 1483 1484 1476 1476 1476 1474 1474 1474 1469 1464 1464 1463 1462 1461 1461 1460 1458 1457 1456 1455 1454 1453 1452 1451 1451 1450 1450 1449 1449 1448 1448 1447 1446 1446 1446 1447 1447 1448 1449
1487 1489 1490 1488 1488 1489 1472 1465 1466 1468 1467 1467 1466 1463 1462 1461 1460 1460 1459 1458 1457 1456 1455 1453 1452 1451 1450 1449 1449 1448 1448 1447 1447 1446 1445 1445 1444 1443 1443 1443 1444 1444 1445 1446
1483 1486 1487 1487 1485 1475 1468 1465 1465 1468 1466 1463 1463 1460 1459 1459 1457 1456 1456 1456 1455 1453 1452 1451 1449 1448 1447 1446 1446 1445 1445 1444 1444 1443 1442 1441 1441 1440 1440 1440 1441 1441 1442 1442
1483 1484 1486 1484 1483 1480 1467 1464 1461 1465 1467 1460 1459 1458 1458 1457 1459 1455 1454 1453 1451 1450 1449 1447 1446 1445 1444 1444 1443 1443 1442 1441 1441 1440 1440 1439 1439 1438 1438 1438 1438 1438 1439 1439
1484 1484 1484 1481 1480 1471 1465 1463 1463 1471 1467 1460 1458 1457 1457 1456 1456 1454 1451 1450 1448 1447 1445 1444 1443 1442 1441 1441 1441 1440 1439 1439 1439 1438 1438 1437 1436 1436 1436 1435 1435 1436 1436 1437
1477 1480 1480 1479 1478 1472 1463 1463 1465 1464 1459 1458 1456 1456 1455 1453 1451 1450 1448 1446 1445 1443 1442 1441 1440 1439 1439 1439 1438 1437 1437 1437 1437 1436 1435 1435 1434 1434 1434 1433 1433 1434 1434 1434
1468 1469 1468 1469 1467 1461 1460 1460 1460 1459 1458 1456 1455 1454 1452 1450 1449 1447 1445 1444 1442 1441 1440 1439 1438 1437 1436 1436 1436 1435 1434 1435 1434 1434 1433 1433 1432 1432 1432 1432 1431 1431 1432 1432
1463 1463 1464 1463 1459 1458 1458 1458 1457 1457 1456 1454 1453 1451 1450 1448 1446 1444 1442 1441 1440 1438 1437 1436 1435 1434 1433 1433 1433 1433 1432 1432 1432 1431 1431 1431 1430 1430 1430 1430 1430 1430 1429 1430
1459 1461 1462 1461 1457 1456 1455 1455 1455 1453 1452 1451 1449 1448 1447 1445 1443 1442 1440 1438 1437 1435 1434 1433 1432 1431 1430 1430 1430 1430 1430 1430 1429 1429 1429 1429 1428 1428 1428 1428 1428 1428 1428 1428
1456 1458 1459 1457 1454 1455 1453 1452 1452 1450 1449 1448 1446 1444 1443 1442 1440 1439 1437 1435 1434 1432 1431 1430 1429 1429 1428 1428 1427 1427 1427 1427 1427 1426 1426 1426 1426 1426 1426 1427 1427 1426 1427 1426